Regional Weather Roundup
Issued by NWS

Home | Current Version | Previous Version | Text Only | Print | Product List | Glossary Off
Versions: 1 2 3 4 5 6 7 8 9 10 11 12 13 14 15 16 17 18 19 20 21 22 23 24 25 26 27 28

000
ASUS45 KSLC 191410
RWRUT

UTAH REGIONAL WEATHER ROUNDUP
NATIONAL WEATHER SERVICE SALT LAKE CITY UT
700 AM MST MON FEB 19 2018

UTZ001>011-023>025-191500-

NORTHERN UTAH

CITY           SKY/WX    TMP DP  RH WIND       PRES   REMARKS
BRIGHAM CITY   CLOUDY    28  20  73 S7        29.47F WCI  20
HILL AFB       CLOUDY    24  24  98 NW20      29.43S WCI  10
LOGAN          CLOUDY    26  15  63 N18       29.48S WCI  13
OGDEN          LGT SNOW  26  24  92 NW12      29.44S FOG     WCI  16
SALT LAKE CITY SNOW      28  25  88 NW16      29.45S VSB 1/2 WCI  16
TOOELE VALLEY  LGT SNOW  27  27 100 W5        29.50R WCI  21
WENDOVER       MOCLDY    26  13  57 NW20      29.54R WCI  12
HEBER CITY     LGT SNOW  23  21  93 CALM      29.35F
WEST JORDAN    CLOUDY    25  25 100 NW15      29.46R WCI  13

$$

UTZ011>015-024>027-191500-

CENTRAL/NORTHEAST UTAH

CITY           SKY/WX    TMP DP  RH WIND       PRES   REMARKS
PROVO AIRPORT  CLOUDY    27  24  89 NW25      29.44R WCI  12
MOAB/CANYONLAN MOCLDY   N/A N/A N/A SW12      29.31R
DELTA          CLOUDY    25  25 100 NW17      29.44S WCI  11
PRICE          CLOUDY    33  22  63 NW10      29.28S WCI  25
RICHFIELD      FOG       27  28 100 CALM      29.41R VSB 1/4
ROOSEVELT      CLOUDY    32  28  86 W10       29.32F WCI  24
VERNAL         FLURRIES  29  23  78 NE16      29.31F WCI  17

$$

UTZ013>016-019>022-027-191500-

SOUTHERN UTAH

CITY           SKY/WX    TMP DP  RH WIND       PRES   REMARKS
BRYCE CANYON   MOCLDY    28  13  53 SW31G44   29.39S WCI  12
CEDAR CITY     LGT SNOW  26  26 100 S12       29.46R FOG     WCI  16
MILFORD        LGT SNOW  25  24  96 N10       29.45R FOG     WCI  15
ST GEORGE      LGT RAIN  39  32  76 W10G20    29.56R WCI  32
HANKSVILLE     MOCLDY    46  19  34 SW20G26   29.36S
KANAB          MOCLDY    39  23  52 SW29G39   29.51R WCI  28
BLANDING         N/A     41  29  64 S18G25    29.56F

$$

REGIONAL REPORTS     COLORADO/ARIZONA

CITY           SKY/WX    TMP DP  RH WIND       PRES   REMARKS
CRAIG, CO      LGT SNOW  26  22  84 E3        29.32F FOG
GRAND JUNCTION MOCLDY    47  24  40 S20G37    29.35F
RIFLE, CO      MOCLDY    42  27  55 S13G24    29.39S
MONTROSE, CO   CLOUDY    41  26  55 S18       29.49F
CORTEZ, CO     CLOUDY    44  27  51 S21G29    29.55F
COLORADO CITY    N/A     37  21  52 SW22G28   29.53R WCI  27
PAGE, AZ       CLEAR     50  19  29 SW16G38   29.42S
GRAND CANYON   CLOUDY    33  27  78 SW21G28   29.55R WCI  21
KINGMAN, AZ    PTCLDY    43  27  53 SW21G30   29.64R
FLAGSTAFF, AZ  CLOUDY    34  28  79 SW36G53   29.58F WCI  19

$$

REGIONAL REPORTS    NEVADA/IDAHO/WYOMING

CITY           SKY/WX    TMP DP  RH WIND       PRES   REMARKS
LAS VEGAS, NV  PTCLDY    45  11  25 SW22G31   29.60R
ELY, NY        CLOUDY    21   8  57 NW9       29.49R WCI  11
ELKO, NV       CLOUDY    18  15  88 W7        29.57R WCI   9
POCATELLO, ID  MOCLDY    22  16  78 N8        29.57R WCI  12
BURLEY, ID     CLOUDY    14  10  84 SW8       29.58S WCI   3
EVANSTON, WY   LGT SNOW  19  15  84 NE8       29.35S FOG     WCI   9
ROCK SPRINGS,  LGT SNOW   3  -3  76 NE18G25   29.43S VSB 3/4 WCI -17

$$




USA.gov is the U.S. government's official web portal to all federal, state and local government web resources and services.